Anaktuvuk Pass, AK

3:35 PM AKDT on July 27, 2017 (GMT -0800)
Anaktuvuk Pass

Weather History for PAKP - January, 2013

Change the Weather History Date:

Thursday, January 31, 2013

  Actual Average Record
Temperature  
Mean Temperature -17 °F -  
Max Temperature -11 °F -2 °F 33 °F (2007)
Min Temperature -23 °F -13 °F -43 °F (2012)
Degree Days  
Heating Degree Days 82    
Moisture  
Dew Point -27 °F    
Average Humidity 61    
Maximum Humidity 91    
Minimum Humidity 58    
Precipitation  
Precipitation 0.00 in - - ()
Sea Level Pressure  
Sea Level Pressure 29.70 in    
Wind  
Wind Speed 7 mph (NNE)    
Max Wind Speed 13 mph    
Max Gust Speed -    
Visibility 7 miles    
Events      
Averages and records for this station are not official NWS values.
T = Trace of Precipitation, MM = Missing Value Source: NWS Daily Summary

Daily Weather History Graph

Daily Weather History Graph

Search for Another Location

Airport or City:

Trip Planner

Search our weather history database for the weather conditions in past years. The results will help you decide how hot, cold, wet, or windy it might be!

Date:

Astronomy

Jan. 31, 2013 Rise Set
Actual Time 10:27 AM AKST 4:14 PM AKST
Civil Twilight 9:14 AM AKST 5:27 PM AKST
Nautical Twilight 8:03 AM AKST 6:38 PM AKST
Astronomical Twilight 6:58 AM AKST 7:44 PM AKST
Moon No Moon Rise 9:39 AM AKST (1/31)
Length of Visible Light 8h 13m
Length of Day
5h 46m
Waning Gibbous, 78% of the Moon is Illuminated
Jan 31
Waning Gibbous
Feb 3
Last Quarter
Feb 9
New
Feb 17
First Quarter
Feb 25
Full

Hourly Weather History & Observations

Time (AKST) Temp. Windchill Dew Point Humidity Pressure Visibility Wind Dir Wind Speed Gust Speed Precip Events Conditions
12:16 AM -11.2 °F -27.8 °F -22.0 °F 59% 29.63 in 1.8 mi NNE 8.1 mph - N/A   Overcast
12:36 AM -13.0 °F -31.3 °F -23.8 °F 59% 29.63 in 2.0 mi NNE 9.2 mph - N/A   Overcast
12:56 AM -13.0 °F -30.0 °F -23.8 °F 59% 29.63 in 3.0 mi NNE 8.1 mph - N/A   Overcast
1:16 AM -13.0 °F -30.0 °F -23.8 °F 59% 29.64 in 4.0 mi NNE 8.1 mph - N/A   Overcast
1:36 AM -14.8 °F -33.5 °F -23.8 °F 64% 29.64 in 3.0 mi NNE 9.2 mph - N/A   Overcast
1:56 AM -14.8 °F -32.2 °F -25.6 °F 58% 29.64 in 3.0 mi NNE 8.1 mph - N/A   Overcast
2:16 AM -14.8 °F -33.5 °F -25.6 °F 58% 29.64 in 3.0 mi NNE 9.2 mph - N/A   Overcast
2:36 AM -16.6 °F -34.4 °F -25.6 °F 64% 29.65 in 7.0 mi NNE 8.1 mph - N/A   Overcast
2:56 AM -16.6 °F -34.4 °F -25.6 °F 64% 29.65 in 5.0 mi NNE 8.1 mph - N/A   Overcast
3:16 AM -16.6 °F -34.4 °F -25.6 °F 64% 29.65 in 4.0 mi NNE 8.1 mph - N/A   Overcast
3:36 AM -16.6 °F -29.3 °F -25.6 °F 64% 29.65 in 3.0 mi NNE 4.6 mph - N/A   Overcast
3:56 AM -16.6 °F -31.3 °F -25.6 °F 64% 29.65 in 2.5 mi NNE 5.8 mph - N/A   Overcast
4:16 AM -16.6 °F -34.4 °F -25.6 °F 64% 29.64 in 3.0 mi NNE 8.1 mph - N/A   Overcast
4:36 AM -16.6 °F -32.9 °F -25.6 °F 64% 29.64 in 3.0 mi NNE 6.9 mph - N/A   Overcast
4:56 AM -16.6 °F -34.4 °F -25.6 °F 64% 29.63 in 3.0 mi NE 8.1 mph - N/A   Overcast
5:16 AM -16.6 °F -35.7 °F -25.6 °F 64% 29.63 in 3.0 mi NE 9.2 mph - N/A   Overcast
5:36 AM -14.8 °F -33.5 °F -25.6 °F 58% 29.63 in 3.0 mi NNE 9.2 mph - N/A   Overcast
5:56 AM -14.8 °F -36.6 °F -25.6 °F 58% 29.63 in 3.0 mi NE 12.7 mph - N/A   Overcast
6:16 AM -16.6 °F -36.8 °F -25.6 °F 64% 29.63 in 3.0 mi NNE 10.4 mph - N/A   Overcast
6:36 AM -16.6 °F -35.7 °F -27.4 °F 58% 29.62 in 3.0 mi NNE 9.2 mph - N/A   Overcast
6:56 AM -16.6 °F -36.8 °F -27.4 °F 58% 29.63 in 5.0 mi NNE 10.4 mph - N/A   Overcast
7:16 AM -16.6 °F -38.9 °F -27.4 °F 58% 29.64 in 5.0 mi NE 12.7 mph - N/A   Overcast
7:36 AM -18.4 °F -39.1 °F - N/A% 29.64 in 4.0 mi NNE 10.4 mph - N/A   Overcast
7:56 AM -18.4 °F -36.6 °F -29.2 °F 58% 29.65 in 9.0 mi NE 8.1 mph - N/A   Overcast
8:16 AM -18.4 °F -36.6 °F -27.4 °F 63% 29.67 in 10.0 mi NE 8.1 mph - N/A   Scattered Clouds
8:36 AM -18.4 °F -33.4 °F -29.2 °F 58% 29.67 in 10.0 mi NE 5.8 mph - N/A   Clear
8:56 AM -18.4 °F -28.9 °F -27.4 °F 63% 29.68 in 9.0 mi North 3.5 mph - N/A   Clear
9:16 AM -18.4 °F -31.4 °F - N/A% 29.67 in 7.0 mi North 4.6 mph - N/A   Clear
9:36 AM -20.2 °F -33.5 °F - N/A% 29.67 in 8.0 mi NNE 4.6 mph - N/A   Partly Cloudy
9:56 AM -20.2 °F -30.9 °F - N/A% 29.66 in 10.0 mi NNE 3.5 mph - N/A   Clear
10:16 AM -20.2 °F -30.9 °F - N/A% 29.65 in 10.0 mi NNE 3.5 mph - N/A   Clear
10:36 AM -18.4 °F - -27.4 °F 63% 29.66 in 10.0 mi Calm Calm - N/A   Clear
10:56 AM -18.4 °F - -29.2 °F 58% 29.67 in 10.0 mi Calm Calm - N/A   Clear
11:16 AM -20.2 °F -40.1 °F - N/A% 29.68 in 9.0 mi NE 9.2 mph - N/A   Clear
11:36 AM -23.8 °F -41.6 °F - N/A% 29.69 in 10.0 mi NE 6.9 mph - N/A   Clear
11:56 AM -20.2 °F -35.5 °F - N/A% 29.68 in 10.0 mi NNE 5.8 mph - N/A   Clear
12:16 PM -20.2 °F -37.3 °F -29.2 °F 63% 29.69 in 10.0 mi NE 6.9 mph - N/A   Scattered Clouds
12:36 PM -20.2 °F -37.3 °F -29.2 °F 63% 29.70 in 10.0 mi NNE 6.9 mph - N/A   Scattered Clouds
12:56 PM -20.2 °F -41.3 °F -29.2 °F 63% 29.71 in 10.0 mi NE 10.4 mph - N/A   Scattered Clouds
1:16 PM -20.2 °F -37.3 °F - N/A% 29.72 in 8.0 mi NE 6.9 mph - N/A   Mostly Cloudy
1:36 PM -20.2 °F -40.1 °F - N/A% 29.73 in 10.0 mi NE 9.2 mph - N/A   Partly Cloudy
1:56 PM -20.2 °F -38.8 °F -29.2 °F 63% 29.72 in 10.0 mi NE 8.1 mph - N/A   Mostly Cloudy
2:16 PM -20.2 °F -37.3 °F - N/A% 29.73 in 10.0 mi NE 6.9 mph - N/A   Mostly Cloudy
2:36 PM -20.2 °F -38.8 °F -22.0 °F 91% 29.74 in 10.0 mi NE 8.1 mph - N/A   Mostly Cloudy
2:56 PM -20.2 °F -33.5 °F - N/A% 29.73 in 10.0 mi NNE 4.6 mph - N/A   Mostly Cloudy
3:16 PM -20.2 °F -30.9 °F - N/A% 29.73 in 9.0 mi NNE 3.5 mph - N/A   Overcast
3:36 PM -20.2 °F -35.5 °F -29.2 °F 63% 29.74 in 5.0 mi NE 5.8 mph - N/A   Mostly Cloudy
3:56 PM -20.2 °F -33.5 °F - N/A% 29.74 in 7.0 mi NNE 4.6 mph - N/A   Mostly Cloudy
4:16 PM -20.2 °F -33.5 °F - N/A% 29.73 in 10.0 mi NNE 4.6 mph - N/A   Overcast
4:36 PM -20.2 °F -30.9 °F - N/A% 29.74 in 9.0 mi NNE 3.5 mph - N/A   Mostly Cloudy
5:16 PM -20.2 °F - - N/A% 29.74 in 10.0 mi Calm Calm - N/A   Mostly Cloudy
5:36 PM -20.2 °F -33.5 °F - N/A% 29.74 in 10.0 mi NNE 4.6 mph - N/A   Mostly Cloudy
6:16 PM -18.4 °F -35.1 °F -29.2 °F 58% 29.74 in 10.0 mi NNE 6.9 mph - N/A   Overcast
6:36 PM -18.4 °F -28.9 °F -29.2 °F 58% 29.74 in 7.0 mi NNE 3.5 mph - N/A   Overcast
6:56 PM -18.4 °F -28.9 °F -29.2 °F 58% 29.75 in 10.0 mi NNE 3.5 mph - N/A   Mostly Cloudy
7:16 PM -18.4 °F -33.4 °F -29.2 °F 58% 29.75 in 9.0 mi NNE 5.8 mph - N/A   Overcast
7:36 PM -18.4 °F -33.4 °F -29.2 °F 58% 29.76 in 4.0 mi NNE 5.8 mph - N/A   Overcast
7:56 PM -18.4 °F -35.1 °F -29.2 °F 58% 29.76 in 7.0 mi NNE 6.9 mph - N/A   Overcast
8:16 PM -18.4 °F -36.6 °F -29.2 °F 58% 29.77 in 4.0 mi NNE 8.1 mph - N/A   Overcast
8:36 PM -18.4 °F -36.6 °F -29.2 °F 58% 29.77 in 7.0 mi NNE 8.1 mph - N/A   Overcast
8:56 PM -18.4 °F -36.6 °F -27.4 °F 63% 29.77 in 10.0 mi NNE 8.1 mph - N/A   Mostly Cloudy
9:16 PM -18.4 °F -35.1 °F -27.4 °F 63% 29.78 in 6.0 mi NNE 6.9 mph - N/A   Overcast
9:36 PM -16.6 °F -32.9 °F -27.4 °F 58% 29.79 in 7.0 mi NNE 6.9 mph - N/A   Overcast
9:56 PM -16.6 °F -32.9 °F -27.4 °F 58% 29.79 in 5.0 mi NNE 6.9 mph - N/A   Overcast
10:16 PM -16.6 °F -34.4 °F -27.4 °F 58% 29.80 in 7.0 mi NE 8.1 mph - N/A   Overcast
10:36 PM -16.6 °F -32.9 °F -27.4 °F 58% 29.80 in 10.0 mi NNE 6.9 mph - N/A   Overcast
10:56 PM -16.6 °F -31.3 °F -27.4 °F 58% 29.81 in 10.0 mi NNE 5.8 mph - N/A   Overcast
11:16 PM -16.6 °F -31.3 °F -27.4 °F 58% 29.81 in 10.0 mi NNE 5.8 mph - N/A   Overcast
11:36 PM -16.6 °F -32.9 °F -27.4 °F 58% 29.82 in 10.0 mi NNE 6.9 mph - N/A   Overcast
11:56 PM -16.6 °F -29.3 °F -27.4 °F 58% 29.83 in 10.0 mi NNE 4.6 mph - N/A   Overcast